FW0183 Weather Reports


time (UTC)temp
F
wind
direction
speed
knots
gust
knots
rain 1hr
in
rain 24hr
in
rain mn
in
humidity
%
barometer
mb
20260510190055 68 360 9.6 15.6 0.00 0.00 0.00 51 1017.6
20260510184552 68 246 8.7 12.2 0.00 0.00 0.00 52 1017.6
20260510183041 69 205 8.7 13.0 0.00 0.00 0.00 47 1017.7
20260510181533 68 360 12.2 19.1 0.00 0.00 0.00 52 1017.6
20260510180025 68 360 5.2 11.3 0.00 0.00 0.00 54 1017.7
20260510174521 67 249 7.0 15.6 0.00 0.00 0.00 52 1018.1
20260510173015 66 300 2.6 9.6 0.00 0.00 0.00 55 1018.4
20260510171509 66 317 1.7 11.3 0.00 0.00 0.00 58 1018.5
20260510170050 66 360 7.8 12.2 0.00 0.00 0.00 54 1018.5
20260510164553 66 267 4.3 9.6 0.00 0.00 0.00 55 1018.7
20260510163038 66 232 7.0 13.0 0.00 0.00 0.00 53 1018.7
20260510161630 66 313 0.9 10.4 0.00 0.00 0.00 56 1018.7
20260510160032 66 30 1.7 7.8 0.00 0.00 0.00 52 1018.7
20260510154516 65 79 3.5 11.3 0.00 0.00 0.00 54 1018.7
20260510153006 64 273 1.7 10.4 0.00 0.00 0.00 55 1018.7
20260510151700 64 332 4.3 12.2 0.00 0.00 0.00 56 1018.8
20260510150046 63 311 2.6 15.6 0.00 0.00 0.00 61 1018.8
20260510144534 62 218 6.1 10.4 0.00 0.00 0.00 64 1018.7
20260510143021 61 204 4.3 12.2 0.00 0.00 0.00 66 1018.7
20260510141516 61 257 6.1 15.6 0.00 0.00 0.00 63 1018.6
20260510140110 60 360 7.8 13.0 0.00 0.00 0.00 69 1018.6
20260510134502 61 260 3.5 11.3 0.00 0.00 0.00 61 1018.6
20260510133054 60 269 8.7 14.8 0.00 0.00 0.00 62 1018.6
20260510131546 59 268 8.7 18.2 0.00 0.00 0.00 62 1018.6
20260510130026 58 259 6.1 12.2 0.00 0.00 0.00 65 1018.6
20260510124512 57 204 5.2 9.6 0.00 0.00 0.00 69 1018.7
20260510123005 55 223 4.3 12.2 0.00 0.00 0.00 74 1018.7
20260510121557 51 155 1.7 6.1 0.00 0.00 0.00 87 1018.5
20260510120043 47 193 0.9 5.2 0.00 0.00 0.00 94 1018.2
20260510114559 42 55 0.0 2.6 0.00 0.00 0.00 96 1018.1
20260510113033 39 55 0.0 1.7 0.00 0.00 0.00 96 1018.1
20260510111513 37 5 0.9 2.6 0.00 0.00 0.00 95 1018.1
20260510104556 33 360 0.0 2.6 0.00 0.00 0.00 93 1017.5
20260510103040 33 360 0.0 4.3 0.00 0.00 0.00 93 1017.2
20260510101531 33 360 0.0 2.6 0.00 0.00 0.00 92 1017.0
20260510100126 33 360 0.9 3.5 0.00 0.00 0.00 93 1017.0
20260510094524 33 360 0.0 4.3 0.00 0.00 0.00 91 1016.9
20260510093009 34 360 0.0 1.7 0.00 0.00 0.00 91 1017.0
20260510091500 34 360 0.0 0.9 0.00 0.00 0.00 92 1016.9
20260510090054 34 360 0.0 1.7 0.00 0.00 0.00 92 1016.7
20260510084534 34 360 0.0 0.9 0.00 0.00 0.00 91 1016.5
20260510083026 35 360 0.0 0.9 0.00 0.00 0.00 91 1016.5
20260510081519 35 360 0.0 3.5 0.00 0.00 0.00 91 1016.3
20260510080009 36 360 0.9 2.6 0.00 0.00 0.00 92 1016.2
20260510074607 36 360 1.7 3.5 0.00 0.00 0.00 91 1016.1
20260510073050 36 360 0.0 2.6 0.00 0.00 0.00 92 1016.0
20260510071543 37 360 0.0 4.3 0.00 0.00 0.00 93 1015.9
20260510070038 36 360 0.0 0.9 0.00 0.00 0.00 90 1015.7
20260510064509 37 360 0.0 2.6 0.00 0.00 0.00 91 1015.6
20260510063004 38 360 0.0 5.2 0.00 0.00 0.00 92 1015.7
20260510061545 37 360 0.0 0.0 0.00 0.00 0.00 91 1015.7
20260510060041 38 360 0.0 0.0 0.00 0.00 0.00 92 1015.7
20260510054533 37 360 0.9 4.3 0.00 0.00 0.00 92 1015.6
20260510053024 38 360 0.9 4.3 0.00 0.00 0.00 89 1015.4
20260510051523 39 360 0.9 3.5 0.00 0.00 0.00 89 1015.5
20260510050019 39 360 0.9 3.5 0.00 0.00 0.00 90 1015.6
20260510044613 40 360 0.0 2.6 0.00 0.00 0.00 90 1015.5
20260510043009 40 360 0.0 1.7 0.00 0.00 0.00 88 1015.5
20260510041555 41 182 0.9 3.5 0.00 0.00 0.00 89 1015.4
20260510040041 41 178 0.0 2.6 0.00 0.00 0.00 88 1015.6
20260510034534 42 177 0.0 2.6 0.00 0.00 0.00 87 1015.5
20260510033026 42 194 0.0 2.6 0.00 0.00 0.00 88 1015.4
20260510031528 43 210 0.0 2.6 0.00 0.00 0.00 86 1015.4
20260510030022 44 210 0.0 0.9 0.00 0.00 0.00 84 1015.2
20260510024518 45 210 0.0 0.0 0.00 0.00 0.00 85 1015.1
20260510023009 45 210 0.0 0.9 0.00 0.00 0.00 85 1015.2
20260510021544 46 210 0.0 1.7 0.00 0.00 0.00 85 1015.2
20260510020038 46 210 0.0 0.9 0.00 0.00 0.00 86 1015.0
20260510014511 46 210 0.9 1.7 0.00 0.00 0.00 86 1014.5
20260510013002 46 210 0.9 5.2 0.00 0.00 0.00 83 1014.3
20260510011541 48 215 3.5 4.3 0.00 0.00 0.00 83 1014.1
20260510010034 48 218 1.7 4.3 0.00 0.00 0.00 80 1013.6
20260510004616 50 227 3.5 5.2 0.00 0.00 0.00 74 1013.6
20260510003010 53 243 3.5 6.1 0.00 0.00 0.00 70 1013.2
20260510001603 55 251 3.5 7.8 0.00 0.00 0.00 68 1013.2
20260510000059 57 258 5.2 7.8 0.00 0.00 0.00 65 1013.2
20260509234605 59 250 5.2 9.6 0.00 0.00 0.00 61 1013.0
20260509233044 61 242 5.2 10.4 0.00 0.00 0.00 59 1012.7
20260509231539 61 287 0.9 7.0 0.00 0.00 0.00 58 1012.7
20260509230032 62 355 1.7 7.0 0.00 0.00 0.00 54 1012.5
20260509224512 63 46 2.6 7.0 0.00 0.00 0.00 54 1012.8
20260509223006 62 324 1.7 10.4 0.00 0.00 0.00 55 1012.6
20260509214547 63 287 5.2 10.4 0.00 0.00 0.00 52 1012.7
20260509213042 64 302 2.6 12.2 0.00 0.00 0.00 55 1012.5
20260509211531 63 360 10.4 20.0 0.00 0.00 0.00 57 1012.4
20260509210024 62 209 13.0 18.2 0.00 0.00 0.00 59 1012.3
20260509204523 62 360 13.0 18.2 0.00 0.00 0.00 60 1012.2
20260509203006 61 360 11.3 19.1 0.00 0.00 0.00 60 1012.3
20260509201559 60 270 9.6 17.4 0.00 0.00 0.00 62 1012.2
20260509200050 61 360 11.3 19.1 0.00 0.00 0.00 58 1012.1
20260509194545 60 360 7.8 13.0 0.00 0.00 0.00 61 1012.0
20260509193041 59 271 9.6 16.5 0.00 0.00 0.00 62 1012.0
20260509191629 59 276 10.4 18.2 0.00 0.00 0.00 62 1012.1